#timestamp,LO_Frequency,Hit,StdDev 
1508097615.6,286047026.3,N
1508097635.4,286047025.6,N
1508097655.2,286047027.8,N
1508097675.1,286047028.0,N
1508097676.0,286047028.0,N
1508097695.8,286047030.4,N
1508097715.6,286047031.1,N
1508097735.5,286047032.0,N
1508097755.3,286047032.5,Y
1508097775.1,286047012.3,P
1508097795.9,286047008.8,N
1508097815.7,286047009.2,N
1508097835.5,286047005.2,N
1508097855.4,286047004.9,N
1508097875.2,286047007.5,N
1508097895.0,286047007.0,N
1508097895.9,286047007.0,N
1508097915.8,286047010.3,N
1508097935.6,286047012.4,N
1508097955.4,286047008.1,N
1508097975.3,286047010.3,N
1508097995.1,286047007.9,N
1508097996.0,286047007.9,N
1508098015.8,286047008.5,N
1508098035.7,286047010.1,N
1508098055.5,286047008.1,N
1508098075.3,286047007.2,N
1508098095.1,286047008.9,N
1508098115.9,286047006.6,N
1508098135.7,286047010.8,Y
1508098155.5,286047000.3,P
1508098175.4,286047001.2,N
1508098195.2,286046996.5,N
1508098215.0,286046999.1,N
1508098215.9,286046999.1,N
1508098235.8,286046998.9,N
1508098255.6,286046999.0,N
1508098275.4,286046996.5,N
1508098295.3,286047000.4,N
1508098315.1,286046996.9,N
1508098316.0,286046996.9,N
1508098335.8,286046996.8,N
1508098355.7,286046995.3,N
1508098375.5,286046994.0,N
1508098395.3,286046993.4,N
1508098415.2,286046995.2,N
1508098435.9,286047000.1,N
1508098455.7,286047000.9,N
1508098475.6,286046995.3,N
1508098495.4,286046993.4,N
1508098515.2,286046993.7,N
1508098535.0,286046990.5,N
1508098535.9,286046990.5,N
1508098555.8,286046988.6,N
1508098575.6,286046991.0,N
1508098595.4,286046989.8,N
1508098615.3,286046991.6,N
1508098635.1,286046989.8,N
1508098655.8,286046989.3,N
1508098675.7,286046985.4,Y
1508098695.5,286046991.2,P
1508098715.3,286046987.6,P
1508098735.2,286046988.2,P
1508098755.9,286046989.6,Y
1508098775.7,286046995.7,P
1508098795.6,286046995.5,N
1508098815.4,286046997.4,N
1508098835.2,286046997.7,N
1508098855.1,286046996.0,N
1508098856.0,286046996.0,N
1508098875.8,286046993.8,N
1508098895.6,286046994.6,N
1508098915.5,286046992.3,Y
1508098935.3,286046996.8,P
1508098955.1,286046996.5,P
1508098975.9,286046996.7,P
1508098995.7,286046999.1,N
1508099015.5,286046997.5,N
1508099035.4,286046998.0,N
1508099055.2,286046997.6,N
1508099075.0,286046995.1,Y
1508099075.9,286046995.1,P
1508099095.8,286047001.0,N
1508099115.6,286046999.4,N
1508099135.4,286047002.7,N
1508099155.3,286047000.0,N
1508099175.1,286046999.1,N
1508099176.0,286046999.1,N
1508099195.8,286046993.9,N
1508099215.6,286046998.2,N
1508099235.5,286047003.4,N
1508099255.3,286047009.0,Y
1508099275.1,286047017.1,P
1508099295.9,286047017.4,N
1508099315.7,286047021.2,N
1508099335.5,286047020.8,N
1508099355.4,286047024.1,N
1508099375.2,286047027.9,Y
1508099395.0,286047007.8,P
1508099395.9,286047007.8,N
1508099415.8,286047012.4,N
1508099435.6,286047013.3,Y
1508099455.4,286047001.6,P
1508099475.3,286047004.1,N
1508099495.1,286047000.4,N
1508099515.8,286047000.3,N
1508099535.7,286047000.1,N
1508099555.5,286047002.1,N
1508099575.3,286047003.9,N
1508099595.2,286047001.7,N
1508099615.9,286047006.7,N
1508099635.7,286047007.4,N
1508099655.6,286047004.5,N
1508099675.4,286047004.8,N
1508099695.2,286047004.5,N
1508099715.0,286047003.4,N
1508099716.0,286047003.4,N
1508099735.8,286047005.2,N
1508099755.6,286047004.9,N
1508099775.4,286047005.7,N
1508099795.3,286047005.4,N
1508099815.1,286047003.9,N
1508099835.8,286047003.5,N
1508099855.7,286047006.0,N
1508099875.5,286047005.5,N
1508099895.3,286047007.3,N
1508099915.2,286047004.5,N
1508099935.9,286047004.5,N
1508099955.7,286047001.5,N
1508099975.6,286047001.0,N
1508099995.4,286047001.2,N
1508100015.2,286047000.9,N
1508100035.0,286046996.8,N
1508100036.0,286046996.8,N
1508100055.8,286046998.7,N
1508100075.6,286046997.9,N
1508100095.4,286046995.0,N
1508100115.3,286046996.3,N
1508100135.1,286046997.6,N
1508100155.8,286046998.7,N
1508100175.7,286046998.3,N
1508100195.5,286046999.1,N
1508100215.3,286047001.0,N
1508100235.2,286047000.4,N
1508100255.9,286046998.5,N
1508100275.7,286046999.7,N
1508100295.6,286047000.2,N
1508100315.4,286047000.0,N
1508100335.2,286046999.7,N
1508100355.1,286047003.2,N
1508100356.0,286047003.2,N
1508100375.8,286047006.9,N
1508100395.6,286047004.6,N
1508100415.4,286047004.7,N
1508100435.3,286047003.8,N
1508100455.1,286047000.6,N
1508100475.8,286046997.4,N
1508100495.7,286046995.4,N
1508100515.5,286046991.0,Y
1508100535.3,286046990.1,P
1508100555.2,286046989.3,N
1508100575.0,286046989.8,N
1508100575.9,286046989.8,N
1508100595.7,286046987.7,Y
1508100615.6,286046997.7,P
1508100635.4,286046994.4,N
1508100655.2,286046994.5,N
1508100675.1,286046994.3,N
1508100676.0,286046994.3,Y
1508100695.8,286046997.7,P
1508100715.6,286046998.9,N
1508100735.5,286046998.7,N
1508100755.3,286046997.4,N
1508100775.1,286046996.8,N
1508100795.9,286046997.5,N
1508100815.7,286046995.5,Y
1508100835.5,286046999.5,P
1508100855.4,286046998.6,N
1508100875.2,286046998.7,N
1508100895.0,286047001.1,N
1508100895.9,286047001.1,N
1508100915.8,286047002.8,N
1508100935.6,286047000.2,N
1508100955.4,286046999.0,N
1508100975.3,286046997.8,N
1508100995.1,286046995.4,N
1508100996.0,286046995.4,N
1508101015.8,286046997.2,N
1508101035.7,286046996.5,N
1508101055.5,286046996.8,N
1508101075.3,286046997.0,N
1508101095.2,286046999.2,N
1508101115.9,286046997.3,N
1508101135.7,286046995.7,N
1508101155.6,286046993.0,Y
1508101175.4,286047000.3,P
1508101195.2,286047003.9,P
